Lexington Weather

Lexington, Massachusetts, USA

34°F
4/16/2021 9:53am 
  • Lexington Conditions: Snow, Mist, Overcast
  • Temperature: 33.8°F / 1.0°CColder 2.0°F than last hour.
  • Dew Point: 32.5°FDecreased 1.7°Fsince last hour.
  • Relative Humidity: 95%Increased 1.0% since last hour.
  • Wind: Calm, 10-min avg: Calm, gust: None
  • Barometer: 29.50 in Steady
  • Visibility: ½ mile
  • Snow Today: 0.3 in
  •   

Regional Weather Roundup
for Boston / Norton, MA

        
000
ASUS41 KBOX 120904
RWRBOX

REGIONAL WEATHER ROUNDUP
NATIONAL WEATHER SERVICE BOSTON/NORTON MA
500 AM EDT MON APR 12 2021

NOTE:  "FAIR" INDICATES FEW OR NO CLOUDS BELOW 12,000 FEET WITH NO 
SIGNIFICANT WEATHER AND/OR OBSTRUCTIONS TO VISIBILITY.

MAZALL-121000-
EASTERN MASSACHUSETTS
  
CITY           SKY/WX    TMP DP  RH WIND       PRES   REMARKS
BOSTON         CLOUDY    45  39  79 N9        29.78R                  
BEVERLY        NOT AVBL                                               
LAWRENCE       CLEAR     42  37  82 N5        29.79S                  
BEDFORD        CLOUDY    43  40  89 N3        29.77R                  
BLUE HILL        N/A     41  39  93 NE8       29.75R                  
NORWOOD        CLOUDY    46  38  73 NE5       29.77R                  
MARSHFIELD     DRIZZLE   45  45 100 VRB5G12   29.77R                  
PLYMOUTH       CLOUDY    44  40  85 NE12      29.75R                  
TAUNTON        CLOUDY    45  39  79 VRB3      29.76R                  
NEW BEDFORD    CLOUDY    45  38  76 N7        29.74R                  
$$

MAZALL-121000-
CAPE COD AND THE ISLANDS
  
CITY           SKY/WX    TMP DP  RH WIND       PRES   REMARKS
FALMOUTH       CLOUDY    43  41  93 NE12G21   29.74                   
HYANNIS        CLOUDY    46  38  73 N12       29.73R                  
CHATHAM        MOCLDY    45  37  73 NE12      29.75R                  
PROVINCETOWN   PTCLDY    44  42  93 NE13      29.77                   
NANTUCKET      CLOUDY    44  38  79 NE16      29.71S                  
MARTHAS VNYRD  CLOUDY    46  37  71 NE13      29.73R                  
$$
 
MAZALL-121000-
CENTRAL AND WESTERN MASSACHUSETTS
  
CITY           SKY/WX    TMP DP  RH WIND       PRES   REMARKS
WORCESTER      CLOUDY    42  35  76 NE7       29.74S                  
FITCHBURG      CLOUDY    43  40  89 NW3       29.78S                  
ORANGE         CLOUDY    45  34  65 N5        29.78R                  
SPRINGFIELD    CLOUDY    47  36  66 N5        29.75R                  
WESTFIELD      CLOUDY    46  38  73 N7        29.75R                  
NORTH ADAMS    CLOUDY    50  31  48 E9        29.74R                  
PITTSFIELD     CLOUDY    46  30  53 NE5       29.72R                  
$$
 
RIZALL-121000-
RHODE ISLAND
  
CITY           SKY/WX    TMP DP  RH WIND       PRES   REMARKS
PROVIDENCE     CLOUDY    45  37  73 NE10      29.76R                  
NEWPORT        CLOUDY    44  36  73 NE10      29.73S                  
BLOCK ISLAND   CLOUDY    44  36  73 NE16G24   29.71S                  
SMITHFIELD     CLOUDY    43  40  89 NE9       29.76R                  
WESTERLY       CLOUDY    43  36  76 NE8       29.71S                  
$$
 
CTZALL-121000-
CONNECTICUT
  
CITY           SKY/WX    TMP DP  RH WIND       PRES   REMARKS
BRADLEY INTL   LGT RAIN  46  39  76 N8        29.74S                  
HARTFORD       CLOUDY    48  39  71 N8        29.73S                  
BRIDGEPORT     LGT RAIN  48  39  71 NE9       29.71R                  
DANBURY        LGT RAIN  46  41  82 N3        29.72S                  
GROTON         CLOUDY    46  35  65 NE7       29.71R                  
NEW HAVEN      CLOUDY    48  40  73 N7        29.71R                  
CHESTER        CLOUDY    46  36  66 NE12      29.70F                  
MERIDEN        CLOUDY    48  36  63 N7        29.72S                  
WILLIMANTIC    LGT RAIN  45  37  73 NE6       29.73S                  
OXFORD         CLOUDY    44  41  89 NE9       29.71S                  
$$

MEZ002-015-021-024-NHZ003-005-008-011-012-014-VTZ005-008-121000-
NORTHERN NEW ENGLAND
  
CITY           SKY/WX    TMP DP  RH WIND       PRES   REMARKS
PORTLAND ME    CLOUDY    44  44 100 NE9       29.81F                  
BANGOR ME      CLOUDY    48  42  80 N12       29.84R                  
CONCORD NH     PTCLDY    42  36  79 N7        29.80R                  
MANCHESTER NH  CLOUDY    45  36  70 N3        29.77S                  
NASHUA NH      MOCLDY    44  40  85 NW5       29.79R                  
PORTSMOUTH NH  MOCLDY    42  36  81 N5        29.80R                  
JAFFREY NH     CLOUDY    42  37  82 VRB3      29.77R                  
KEENE NH       LGT RAIN  42  41  96 CALM      29.78R                  
BURLINGTON VT  CLEAR     50  37  61 SE6       29.77R                  
MT. WASHINGTON FRZ DRZL  28  28 100 E38         N/A  VSB 0   WCI  11  
$$

NYZ052-076-121000-
EASTERN NEW YORK
  
CITY           SKY/WX    TMP DP  RH WIND       PRES   REMARKS
ALBANY         LGT RAIN  46  38  73 CALM      29.75R                  
NEW YORK CITY  CLOUDY    46  42  86 NE16      29.68F                  
$$
 
ANZALL-121000-
MARINE OBSERVATIONS
  
STATION/POSITION TIME  TEMP    WIND        PRES    VSBY  WAVE
                       AIR SEA DIR/SP/G                  HT/PER
                 (UTC) (F)     (DEG/KT/KT) (MB)    (MI)  (FT/S)
BOSTON BUOY      0840   44 44   30/ 12/ 14 1008.5F
BUZZARDS BAY     0800           50/ 20/ 22 1007.2R
NANTUCKET SOUND  0840      47                N/A
MASS BAY-STELLWA NOT AVBL
ISLE OF SHOALS   0800   43      10/  8/  8 1008.2F
S OF BLOCK IS    0826      45                N/A           5/ 5
$$

......................KEY.........................
  SKY/WX - SKY CONDITION/PRESENT WEATHER
  TMP    - TEMPERATURE IN FAHRENHEIT
  DWPT   - DEWPOINT IN FAHRENHEIT
  RH     - RELATIVE HUMIDITY IN PERCENT
  WIND   - DIRECTION AND SPEED IN MPH
  PRES   - MEAN SEA LEVEL PRESSURE IN INCHES OF HG
  WCI    - WIND CHILL INDEX
  VSB    - VISIBILITY IN MILES
  HX     - HEAT INDEX
  TC     - TEMPERATURE IN CELSIUS
  VRB    - VARIABLE WIND DIRECTION
  N/A    - NOT AVAILABLE
  
      

Other recent Regional Weather Roundups

Fri Apr 16, 9:04am

Fri Apr 16, 8:04am

Fri Apr 16, 7:04am

Fri Apr 16, 6:04am

Fri Apr 16, 5:04am

Fri Apr 16, 4:04am

Fri Apr 16, 3:04am

Fri Apr 16, 2:04am

Fri Apr 16, 1:04am

Fri Apr 16, 12:04am

Thu Apr 15, 11:05pm

Thu Apr 15, 10:04pm

Thu Apr 15, 9:04pm

Thu Apr 15, 8:04pm

Thu Apr 15, 7:05pm

Thu Apr 15, 6:04pm

Thu Apr 15, 5:05pm

Thu Apr 15, 4:04pm

Thu Apr 15, 3:05pm

Thu Apr 15, 2:04pm

Thu Apr 15, 1:05pm

Thu Apr 15, 12:04pm

Thu Apr 15, 11:04am

Thu Apr 15, 10:05am

Thu Apr 15, 9:04am

Thu Apr 15, 8:04am

Thu Apr 15, 7:04am

Thu Apr 15, 6:04am

Thu Apr 15, 5:04am

Thu Apr 15, 4:04am

Thu Apr 15, 3:04am

Thu Apr 15, 2:04am

Thu Apr 15, 1:04am

Thu Apr 15, 12:04am

Wed Apr 14, 11:04pm

Wed Apr 14, 10:04pm

Wed Apr 14, 9:04pm

Wed Apr 14, 8:04pm

Wed Apr 14, 7:04pm

Wed Apr 14, 6:04pm

Wed Apr 14, 5:05pm

Wed Apr 14, 4:04pm

Wed Apr 14, 3:05pm

Wed Apr 14, 2:04pm

Wed Apr 14, 1:05pm

Wed Apr 14, 12:04pm

Wed Apr 14, 11:04am

Wed Apr 14, 10:04am

Wed Apr 14, 9:04am

Wed Apr 14, 8:04am

Wed Apr 14, 7:04am

Wed Apr 14, 6:04am

Wed Apr 14, 5:04am

Wed Apr 14, 4:04am

Wed Apr 14, 3:04am

Wed Apr 14, 2:04am

Wed Apr 14, 1:04am

Wed Apr 14, 12:04am

Tue Apr 13, 11:04pm

Tue Apr 13, 10:05pm

Tue Apr 13, 9:05pm

Tue Apr 13, 8:05pm

Tue Apr 13, 7:04pm

Tue Apr 13, 6:04pm

Tue Apr 13, 5:05pm

Tue Apr 13, 4:04pm

Tue Apr 13, 3:04pm

Tue Apr 13, 2:05pm

Tue Apr 13, 1:04pm

Tue Apr 13, 12:05pm

Tue Apr 13, 11:05am

Tue Apr 13, 10:04am

Tue Apr 13, 9:04am

Tue Apr 13, 8:04am

Tue Apr 13, 7:04am

Tue Apr 13, 6:04am

Tue Apr 13, 5:04am

Tue Apr 13, 4:04am

Tue Apr 13, 3:04am

Tue Apr 13, 2:04am

Tue Apr 13, 1:04am

Tue Apr 13, 12:05am

Mon Apr 12, 11:04pm

Mon Apr 12, 10:04pm

Mon Apr 12, 9:04pm

Mon Apr 12, 8:04pm

Mon Apr 12, 7:05pm

Mon Apr 12, 6:04pm

Mon Apr 12, 5:04pm

Mon Apr 12, 4:04pm

Mon Apr 12, 3:05pm

Mon Apr 12, 2:04pm

Mon Apr 12, 1:05pm

Mon Apr 12, 12:04pm

Mon Apr 12, 11:04am

Mon Apr 12, 10:04am

Mon Apr 12, 9:04am

Mon Apr 12, 8:04am

Mon Apr 12, 7:04am

Mon Apr 12, 6:04am

Mon Apr 12, 4:04am

Mon Apr 12, 3:04am

Mon Apr 12, 2:04am

Mon Apr 12, 1:05am

Mon Apr 12, 12:04am

Sun Apr 11, 11:04pm

Sun Apr 11, 10:04pm

Sun Apr 11, 9:04pm

Sun Apr 11, 8:04pm

Sun Apr 11, 7:04pm

Sun Apr 11, 6:05pm

Sun Apr 11, 5:05pm

Sun Apr 11, 4:04pm

Sun Apr 11, 3:05pm

Sun Apr 11, 2:05pm

Sun Apr 11, 1:05pm

Sun Apr 11, 12:04pm

Sun Apr 11, 11:05am

Sun Apr 11, 10:05am

Sun Apr 11, 9:04am

Sun Apr 11, 8:04am

Sun Apr 11, 7:04am

Sun Apr 11, 6:04am

Sun Apr 11, 5:04am

Sun Apr 11, 4:04am

Sun Apr 11, 3:04am

Sun Apr 11, 2:04am

Sun Apr 11, 1:05am

Sun Apr 11, 12:04am

Sat Apr 10, 11:05pm

Sat Apr 10, 10:04pm

Sat Apr 10, 9:04pm

Sat Apr 10, 8:04pm

Sat Apr 10, 7:05pm

Sat Apr 10, 6:04pm

Sat Apr 10, 5:04pm

Sat Apr 10, 4:04pm

Sat Apr 10, 3:04pm

Sat Apr 10, 2:05pm

Sat Apr 10, 1:04pm

Sat Apr 10, 12:04pm

Sat Apr 10, 11:04am

Sat Apr 10, 10:04am

Sat Apr 10, 9:04am

Sat Apr 10, 8:04am

Sat Apr 10, 7:04am

Sat Apr 10, 6:04am

Sat Apr 10, 5:04am

Sat Apr 10, 4:04am

Sat Apr 10, 3:04am

Sat Apr 10, 2:04am

Sat Apr 10, 1:05am

Sat Apr 10, 12:04am

Fri Apr 9, 11:04pm

Fri Apr 9, 10:05pm

Fri Apr 9, 9:04pm

Fri Apr 9, 8:05pm

Fri Apr 9, 7:05pm

Fri Apr 9, 6:04pm

Fri Apr 9, 5:04pm

Fri Apr 9, 4:05pm

Fri Apr 9, 3:05pm

Fri Apr 9, 2:04pm

Fri Apr 9, 1:04pm

Fri Apr 9, 12:04pm

Fri Apr 9, 11:05am

Fri Apr 9, 10:04am

Meta data:

ID: 6398745e-5d26-45bd-a056-1127a48936e5
Link: https://api.weather.gov/products/6398745e-5d26-45bd-a056-1127a48936e5